Year,Month,Day,Hour,Minute,Value (Times are PST for windspeed in km/hr)
2006,12,22,00,00,1.10
2006,12,22,00,01,0.10
2006,12,22,00,02,0.60
2006,12,22,00,03,1.80
2006,12,22,00,04,0.90
2006,12,22,00,05,1.10
2006,12,22,00,06,0.60
2006,12,22,00,07,2.90
2006,12,22,00,08,0.50
2006,12,22,00,09,0.00
2006,12,22,00,10,0.00
2006,12,22,00,11,0.00
2006,12,22,00,12,0.00
2006,12,22,00,13,0.00
2006,12,22,00,14,0.30
2006,12,22,00,15,0.20
2006,12,22,00,16,0.20
2006,12,22,00,17,0.00
2006,12,22,00,18,0.00
2006,12,22,00,19,0.00
2006,12,22,00,20,0.00
2006,12,22,00,21,0.10
2006,12,22,00,22,0.20
2006,12,22,00,23,0.00
2006,12,22,00,24,0.90
2006,12,22,00,25,3.10
2006,12,22,00,26,2.20
2006,12,22,00,27,0.00
2006,12,22,00,28,0.00
2006,12,22,00,29,0.00
2006,12,22,00,30,0.10
2006,12,22,00,31,0.20
2006,12,22,00,32,0.00
2006,12,22,00,33,0.00
2006,12,22,00,34,0.00
2006,12,22,00,35,0.00
2006,12,22,00,36,0.00
2006,12,22,00,37,0.00
2006,12,22,00,38,0.00
2006,12,22,00,39,0.00
2006,12,22,00,40,1.40
2006,12,22,00,41,0.10
2006,12,22,00,42,0.00
2006,12,22,00,43,0.10
2006,12,22,00,44,0.10
2006,12,22,00,45,0.00
2006,12,22,00,46,0.00
2006,12,22,00,47,0.00
2006,12,22,00,48,0.00
2006,12,22,00,49,0.00
2006,12,22,00,50,0.00
2006,12,22,00,51,0.00
2006,12,22,00,52,0.10
2006,12,22,00,53,0.80
2006,12,22,00,54,1.80
2006,12,22,00,55,0.10
2006,12,22,00,56,0.00
2006,12,22,00,57,0.00
2006,12,22,00,58,1.20
2006,12,22,00,59,0.90
2006,12,22,01,00,0.10
2006,12,22,01,01,0.00
2006,12,22,01,02,0.00
2006,12,22,01,03,0.00
2006,12,22,01,04,0.00
2006,12,22,01,05,0.00
2006,12,22,01,06,0.00
2006,12,22,01,07,0.00
2006,12,22,01,08,0.00
2006,12,22,01,09,0.00
2006,12,22,01,10,0.00
2006,12,22,01,11,0.00
2006,12,22,01,12,0.00
2006,12,22,01,13,0.00
2006,12,22,01,14,0.00
2006,12,22,01,15,0.00
2006,12,22,01,16,0.00
2006,12,22,01,17,0.00
2006,12,22,01,18,0.10
2006,12,22,01,19,0.20
2006,12,22,01,20,0.00
2006,12,22,01,21,0.40
2006,12,22,01,22,1.60
2006,12,22,01,23,2.50
2006,12,22,01,24,2.50
2006,12,22,01,25,0.70
2006,12,22,01,26,0.00
2006,12,22,01,27,0.00
2006,12,22,01,28,0.00
2006,12,22,01,29,0.00
2006,12,22,01,30,1.00
2006,12,22,01,31,0.00
2006,12,22,01,32,0.00
2006,12,22,01,33,0.10
2006,12,22,01,34,1.30
2006,12,22,01,35,2.40
2006,12,22,01,36,1.20
2006,12,22,01,37,0.00
2006,12,22,01,38,0.00
2006,12,22,01,39,0.00
2006,12,22,01,40,0.00
2006,12,22,01,41,0.00
2006,12,22,01,42,0.00
2006,12,22,01,43,0.00
2006,12,22,01,44,0.00
2006,12,22,01,45,0.00
2006,12,22,01,46,1.00
2006,12,22,01,47,2.70
2006,12,22,01,48,2.20
2006,12,22,01,49,2.10
2006,12,22,01,50,2.80
2006,12,22,01,51,2.20
2006,12,22,01,52,3.00
2006,12,22,01,53,2.60
2006,12,22,01,54,0.40
2006,12,22,01,55,1.80
2006,12,22,01,56,2.20
2006,12,22,01,57,2.60
2006,12,22,01,58,2.20
2006,12,22,01,59,2.60
2006,12,22,02,00,2.80
2006,12,22,02,01,5.10
2006,12,22,02,02,4.60
2006,12,22,02,03,2.80
2006,12,22,02,04,2.30
2006,12,22,02,05,1.20
2006,12,22,02,06,0.80
2006,12,22,02,07,0.00
2006,12,22,02,08,0.10
2006,12,22,02,09,0.90
2006,12,22,02,10,0.00
2006,12,22,02,11,0.20
2006,12,22,02,12,0.00
2006,12,22,02,13,0.00
2006,12,22,02,14,0.00
2006,12,22,02,15,0.00
2006,12,22,02,16,0.00
2006,12,22,02,17,0.00
2006,12,22,02,18,0.00
2006,12,22,02,19,0.00
2006,12,22,02,20,0.00
2006,12,22,02,21,0.00
2006,12,22,02,22,1.60
2006,12,22,02,23,0.40
2006,12,22,02,24,0.00
2006,12,22,02,25,0.00
2006,12,22,02,26,0.00
2006,12,22,02,27,0.00
2006,12,22,02,28,1.40
2006,12,22,02,29,2.00
2006,12,22,02,30,2.10
2006,12,22,02,31,1.50
2006,12,22,02,32,1.40
2006,12,22,02,33,3.80
2006,12,22,02,34,1.90
2006,12,22,02,35,1.90
2006,12,22,02,36,2.60
2006,12,22,02,37,1.80
2006,12,22,02,38,3.50
2006,12,22,02,39,4.00
2006,12,22,02,40,4.80
2006,12,22,02,41,5.70
2006,12,22,02,42,6.10
2006,12,22,02,43,6.60
2006,12,22,02,44,5.80
2006,12,22,02,45,6.20
2006,12,22,02,46,5.50
2006,12,22,02,47,5.60
2006,12,22,02,48,5.50
2006,12,22,02,49,4.40
2006,12,22,02,50,4.50
2006,12,22,02,51,4.10
2006,12,22,02,52,4.80
2006,12,22,02,53,4.20
2006,12,22,02,54,2.90
2006,12,22,02,55,4.10
2006,12,22,02,56,3.50
2006,12,22,02,57,1.50
2006,12,22,02,58,2.20
2006,12,22,02,59,3.00
2006,12,22,03,00,2.50
2006,12,22,03,01,2.50
2006,12,22,03,02,2.40
2006,12,22,03,03,1.10
2006,12,22,03,04,1.10
2006,12,22,03,05,1.20
2006,12,22,03,06,1.50
2006,12,22,03,07,1.20
2006,12,22,03,08,2.50
2006,12,22,03,09,1.90
2006,12,22,03,10,2.90
2006,12,22,03,11,2.80
2006,12,22,03,12,3.20
2006,12,22,03,13,1.40
2006,12,22,03,14,0.60
2006,12,22,03,15,2.00
2006,12,22,03,16,0.50
2006,12,22,03,17,1.50
2006,12,22,03,18,1.40
2006,12,22,03,19,1.80
2006,12,22,03,20,2.10
2006,12,22,03,21,0.60
2006,12,22,03,22,1.70
2006,12,22,03,23,1.50
2006,12,22,03,24,1.50
2006,12,22,03,25,1.80
2006,12,22,03,26,0.90
2006,12,22,03,27,3.00
2006,12,22,03,28,3.00
2006,12,22,03,29,3.70
2006,12,22,03,30,4.10
2006,12,22,03,31,3.20
2006,12,22,03,32,2.10
2006,12,22,03,33,1.70
2006,12,22,03,34,3.00
2006,12,22,03,35,3.20
2006,12,22,03,36,3.00
2006,12,22,03,37,3.50
2006,12,22,03,38,3.20
2006,12,22,03,39,3.40
2006,12,22,03,40,3.70
2006,12,22,03,41,1.50
2006,12,22,03,42,1.40
2006,12,22,03,43,3.00
2006,12,22,03,44,3.40
2006,12,22,03,45,3.30
2006,12,22,03,46,3.20
2006,12,22,03,47,3.60
2006,12,22,03,48,1.70
2006,12,22,03,49,2.20
2006,12,22,03,50,2.30
2006,12,22,03,51,2.20
2006,12,22,03,52,1.50
2006,12,22,03,53,2.60
2006,12,22,03,54,2.80
2006,12,22,03,55,2.70
2006,12,22,03,56,2.10
2006,12,22,03,57,3.70
2006,12,22,03,58,3.30
2006,12,22,03,59,3.30
2006,12,22,04,00,3.70
2006,12,22,04,01,3.20
2006,12,22,04,02,1.50
2006,12,22,04,03,3.10
2006,12,22,04,04,3.10
2006,12,22,04,05,0.80
2006,12,22,04,06,0.50
2006,12,22,04,07,1.10
2006,12,22,04,08,0.10
2006,12,22,04,09,0.90
2006,12,22,04,10,1.90
2006,12,22,04,11,3.00
2006,12,22,04,12,2.70
2006,12,22,04,13,1.50
2006,12,22,04,14,2.50
2006,12,22,04,15,2.80
2006,12,22,04,16,2.70
2006,12,22,04,17,3.30
2006,12,22,04,18,1.50
2006,12,22,04,19,0.10
2006,12,22,04,20,0.20
2006,12,22,04,21,0.70
2006,12,22,04,22,1.20
2006,12,22,04,23,0.00
2006,12,22,04,24,0.00
2006,12,22,04,25,0.60
2006,12,22,04,26,2.00
2006,12,22,04,27,2.30
2006,12,22,04,28,2.40
2006,12,22,04,29,0.40
2006,12,22,04,30,2.20
2006,12,22,04,31,0.90
2006,12,22,04,32,2.30
2006,12,22,04,33,2.60
2006,12,22,04,34,0.60
2006,12,22,04,35,2.30
2006,12,22,04,36,1.40
2006,12,22,04,37,0.20
2006,12,22,04,38,0.00
2006,12,22,04,39,0.00
2006,12,22,04,40,0.00
2006,12,22,04,41,0.00
2006,12,22,04,42,0.00
2006,12,22,04,43,0.90
2006,12,22,04,44,2.40
2006,12,22,04,45,3.50
2006,12,22,04,46,3.20
2006,12,22,04,47,3.90
2006,12,22,04,48,3.00
2006,12,22,04,49,3.10
2006,12,22,04,50,2.30
2006,12,22,04,51,3.30
2006,12,22,04,52,4.00
2006,12,22,04,53,3.50
2006,12,22,04,54,3.00
2006,12,22,04,55,1.70
2006,12,22,04,56,3.30
2006,12,22,04,57,2.90
2006,12,22,04,58,2.50
2006,12,22,04,59,1.90
2006,12,22,05,00,3.20
2006,12,22,05,01,3.00
2006,12,22,05,02,3.40
2006,12,22,05,03,3.00
2006,12,22,05,04,2.50
2006,12,22,05,05,3.40
2006,12,22,05,06,2.30
2006,12,22,05,07,3.60
2006,12,22,05,08,2.20
2006,12,22,05,09,3.90
2006,12,22,05,10,3.30
2006,12,22,05,11,2.60
2006,12,22,05,12,2.10
2006,12,22,05,13,0.20
2006,12,22,05,14,1.20
2006,12,22,05,15,1.80
2006,12,22,05,16,2.20
2006,12,22,05,17,2.60
2006,12,22,05,18,2.70
2006,12,22,05,19,2.70
2006,12,22,05,20,2.40
2006,12,22,05,21,3.30
2006,12,22,05,22,2.80
2006,12,22,05,23,4.40
2006,12,22,05,24,6.40
2006,12,22,05,25,6.90
2006,12,22,05,26,6.20
2006,12,22,05,27,5.80
2006,12,22,05,28,3.80
2006,12,22,05,29,4.90
2006,12,22,05,30,4.30
2006,12,22,05,31,2.80
2006,12,22,05,32,2.60
2006,12,22,05,33,3.10
2006,12,22,05,34,1.70
2006,12,22,05,35,1.90
2006,12,22,05,36,2.30
2006,12,22,05,37,2.30
2006,12,22,05,38,2.40
2006,12,22,05,39,2.70
2006,12,22,05,40,3.70
2006,12,22,05,41,3.40
2006,12,22,05,42,3.50
2006,12,22,05,43,2.30
2006,12,22,05,44,2.80
2006,12,22,05,45,2.60
2006,12,22,05,46,3.90
2006,12,22,05,47,3.10
2006,12,22,05,48,3.50
2006,12,22,05,49,2.00
2006,12,22,05,50,2.90
2006,12,22,05,51,2.10
2006,12,22,05,52,3.30
2006,12,22,05,53,2.40
2006,12,22,05,54,3.50
2006,12,22,05,55,3.20
2006,12,22,05,56,3.70
2006,12,22,05,57,3.80
2006,12,22,05,58,3.50
2006,12,22,05,59,3.40
2006,12,22,06,00,3.60
2006,12,22,06,01,3.30
2006,12,22,06,02,3.50
2006,12,22,06,03,2.50
2006,12,22,06,04,4.40
2006,12,22,06,05,3.50
2006,12,22,06,06,3.50
2006,12,22,06,07,3.40
2006,12,22,06,08,2.30
2006,12,22,06,09,0.90
2006,12,22,06,10,0.50
2006,12,22,06,11,1.70
2006,12,22,06,12,0.40
2006,12,22,06,13,0.50
2006,12,22,06,14,0.30
2006,12,22,06,15,1.70
2006,12,22,06,16,0.70
2006,12,22,06,17,2.60
2006,12,22,06,18,3.30
2006,12,22,06,19,2.70
2006,12,22,06,20,3.60
2006,12,22,06,21,2.60
2006,12,22,06,22,3.00
2006,12,22,06,23,4.40
2006,12,22,06,24,3.50
2006,12,22,06,25,3.30
2006,12,22,06,26,4.10
2006,12,22,06,27,5.00
2006,12,22,06,28,4.70
2006,12,22,06,29,3.90
2006,12,22,06,30,2.30
2006,12,22,06,31,3.70
2006,12,22,06,32,3.80
2006,12,22,06,33,5.60
2006,12,22,06,34,5.90
2006,12,22,06,35,4.90
2006,12,22,06,36,4.90
2006,12,22,06,37,5.00
2006,12,22,06,38,3.10
2006,12,22,06,39,1.90
2006,12,22,06,40,2.50
2006,12,22,06,41,3.90
2006,12,22,06,42,2.50
2006,12,22,06,43,4.20
2006,12,22,06,44,4.70
2006,12,22,06,45,5.40
2006,12,22,06,46,5.50
2006,12,22,06,47,5.10
2006,12,22,06,48,4.60
2006,12,22,06,49,4.50
2006,12,22,06,50,3.60
2006,12,22,06,51,3.50
2006,12,22,06,52,2.70
2006,12,22,06,53,2.90
2006,12,22,06,54,4.30
2006,12,22,06,55,3.30
2006,12,22,06,56,4.30
2006,12,22,06,57,4.70
2006,12,22,06,58,4.60
2006,12,22,06,59,4.70
2006,12,22,07,00,5.10
2006,12,22,07,01,3.50
2006,12,22,07,02,3.40
2006,12,22,07,03,2.20
2006,12,22,07,04,1.80
2006,12,22,07,05,1.70
2006,12,22,07,06,1.70
2006,12,22,07,07,2.00
2006,12,22,07,08,3.40
2006,12,22,07,09,3.70
2006,12,22,07,10,4.00
2006,12,22,07,11,3.90
2006,12,22,07,12,2.20
2006,12,22,07,13,1.40
2006,12,22,07,14,0.60
2006,12,22,07,15,2.10
2006,12,22,07,16,0.70
2006,12,22,07,17,0.40
2006,12,22,07,18,0.90
2006,12,22,07,19,1.90
2006,12,22,07,20,1.90
2006,12,22,07,21,1.20
2006,12,22,07,22,0.80
2006,12,22,07,23,0.00
2006,12,22,07,24,0.00
2006,12,22,07,25,0.10
2006,12,22,07,26,0.00
2006,12,22,07,27,0.00
2006,12,22,07,28,0.00
2006,12,22,07,29,1.80
2006,12,22,07,30,1.10
2006,12,22,07,31,2.90
2006,12,22,07,32,0.10
2006,12,22,07,33,0.70
2006,12,22,07,34,0.00
2006,12,22,07,35,0.10
2006,12,22,07,36,0.00
2006,12,22,07,37,0.10
2006,12,22,07,38,0.00
2006,12,22,07,39,1.00
2006,12,22,07,40,3.00
2006,12,22,07,41,1.80
2006,12,22,07,42,3.80
2006,12,22,07,43,2.40
2006,12,22,07,44,4.70
2006,12,22,07,45,3.70
2006,12,22,07,46,2.70
2006,12,22,07,47,4.00
2006,12,22,07,48,4.00
2006,12,22,07,49,4.60
2006,12,22,07,50,3.60
2006,12,22,07,51,2.40
2006,12,22,07,52,3.40
2006,12,22,07,53,2.70
2006,12,22,07,54,3.90
2006,12,22,07,55,4.40
2006,12,22,07,56,5.60
2006,12,22,07,57,2.50
2006,12,22,07,58,1.40
2006,12,22,07,59,1.20
2006,12,22,08,00,1.50
2006,12,22,08,01,2.20
2006,12,22,08,02,1.90
2006,12,22,08,03,1.60
2006,12,22,08,04,2.00
2006,12,22,08,05,1.90
2006,12,22,08,06,1.50
2006,12,22,08,07,1.50
2006,12,22,08,08,1.80
2006,12,22,08,09,2.00
2006,12,22,08,10,1.30
2006,12,22,08,11,0.50
2006,12,22,08,12,0.00
2006,12,22,08,13,0.30
2006,12,22,08,14,0.00
2006,12,22,08,15,0.60
2006,12,22,08,16,0.90
2006,12,22,08,17,0.80
2006,12,22,08,18,0.80
2006,12,22,08,19,1.70
2006,12,22,08,20,1.50
2006,12,22,08,21,1.30
2006,12,22,08,22,0.50
2006,12,22,08,23,0.20
2006,12,22,08,24,0.20
2006,12,22,08,25,0.10
2006,12,22,08,26,0.00
2006,12,22,08,27,0.00
2006,12,22,08,28,0.00
2006,12,22,08,29,0.00
2006,12,22,08,30,0.10
2006,12,22,08,31,1.60
2006,12,22,08,32,2.30
2006,12,22,08,33,1.90
2006,12,22,08,34,1.60
2006,12,22,08,35,0.80
2006,12,22,08,36,1.00
2006,12,22,08,37,1.00
2006,12,22,08,38,1.10
2006,12,22,08,39,1.10
2006,12,22,08,40,3.40
2006,12,22,08,41,3.50
2006,12,22,08,42,2.80
2006,12,22,08,43,3.10
2006,12,22,08,44,1.60
2006,12,22,08,45,3.00
2006,12,22,08,46,3.30
2006,12,22,08,47,3.00
2006,12,22,08,48,3.00
2006,12,22,08,49,3.70
2006,12,22,08,50,3.50
2006,12,22,08,51,3.00
2006,12,22,08,52,2.70
2006,12,22,08,53,3.40
2006,12,22,08,54,2.00
2006,12,22,08,55,2.20
2006,12,22,08,56,1.60
2006,12,22,08,57,1.40
2006,12,22,08,58,1.00
2006,12,22,08,59,1.00
2006,12,22,09,00,2.20
2006,12,22,09,01,2.40
2006,12,22,09,02,3.40
2006,12,22,09,03,2.50
2006,12,22,09,04,2.40
2006,12,22,09,05,2.90
2006,12,22,09,06,1.40
2006,12,22,09,07,1.40
2006,12,22,09,08,2.30
2006,12,22,09,09,1.70
2006,12,22,09,10,2.30
2006,12,22,09,11,2.90
2006,12,22,09,12,2.80
2006,12,22,09,13,3.10
2006,12,22,09,14,2.90
2006,12,22,09,15,2.60
2006,12,22,09,16,2.80
2006,12,22,09,17,4.50
2006,12,22,09,18,3.10
2006,12,22,09,19,4.10
2006,12,22,09,20,3.70
2006,12,22,09,21,3.30
2006,12,22,09,22,3.50
2006,12,22,09,23,2.80
2006,12,22,09,24,3.40
2006,12,22,09,25,3.40
2006,12,22,09,26,4.50
2006,12,22,09,27,5.00
2006,12,22,09,28,3.70
2006,12,22,09,29,3.50
2006,12,22,09,30,1.10
2006,12,22,09,31,0.90
2006,12,22,09,32,0.10
2006,12,22,09,33,1.60
2006,12,22,09,34,1.30
2006,12,22,09,35,1.00
2006,12,22,09,36,0.60
2006,12,22,09,37,0.90
2006,12,22,09,38,2.70
2006,12,22,09,39,2.80
2006,12,22,09,40,2.10
2006,12,22,09,41,3.50
2006,12,22,09,42,1.80
2006,12,22,09,43,2.40
2006,12,22,09,44,1.00
2006,12,22,09,45,1.30
2006,12,22,09,46,1.80
2006,12,22,09,47,1.80
2006,12,22,09,48,2.70
2006,12,22,09,49,2.20
2006,12,22,09,50,0.10
2006,12,22,09,51,0.50
2006,12,22,09,52,0.30
2006,12,22,09,53,1.20
2006,12,22,09,54,1.40
2006,12,22,09,55,3.90
2006,12,22,09,56,1.70
2006,12,22,09,57,2.70
2006,12,22,09,58,0.20
2006,12,22,09,59,3.00
2006,12,22,10,00,2.90
2006,12,22,10,01,3.40
2006,12,22,10,02,3.10
2006,12,22,10,03,3.90
2006,12,22,10,04,4.50
2006,12,22,10,05,4.50
2006,12,22,10,06,3.10
2006,12,22,10,07,3.00
2006,12,22,10,08,1.40
2006,12,22,10,09,2.00
2006,12,22,10,10,2.60
2006,12,22,10,11,1.70
2006,12,22,10,12,3.90
2006,12,22,10,13,1.10
2006,12,22,10,14,0.10
2006,12,22,10,15,0.80
2006,12,22,10,16,0.80
2006,12,22,10,17,1.60
2006,12,22,10,18,2.00
2006,12,22,10,19,2.60
2006,12,22,10,20,4.90
2006,12,22,10,21,3.90
2006,12,22,10,22,3.40
2006,12,22,10,23,3.20
2006,12,22,10,24,4.90
2006,12,22,10,25,3.00
2006,12,22,10,26,5.20
2006,12,22,10,27,4.30
2006,12,22,10,28,5.00
2006,12,22,10,29,2.70
2006,12,22,10,30,5.80
2006,12,22,10,31,6.10
2006,12,22,10,32,3.90
2006,12,22,10,33,1.60
2006,12,22,10,34,1.40
2006,12,22,10,35,2.40
2006,12,22,10,36,2.80
2006,12,22,10,37,4.80
2006,12,22,10,38,3.30
2006,12,22,10,39,6.40
2006,12,22,10,40,2.70
2006,12,22,10,41,2.90
2006,12,22,10,42,1.40
2006,12,22,10,43,1.40
2006,12,22,10,44,3.10
2006,12,22,10,45,1.60
2006,12,22,10,46,1.40
2006,12,22,10,47,4.30
2006,12,22,10,48,2.30
2006,12,22,10,49,4.60
2006,12,22,10,50,1.90
2006,12,22,10,51,3.50
2006,12,22,10,52,4.70
2006,12,22,10,53,5.10
2006,12,22,10,54,1.00
2006,12,22,10,55,7.50
2006,12,22,10,56,3.40
2006,12,22,10,57,2.60
2006,12,22,10,58,1.90
2006,12,22,10,59,3.20
2006,12,22,11,00,1.00
2006,12,22,11,01,2.50
2006,12,22,11,02,7.00
2006,12,22,11,03,4.10
2006,12,22,11,04,4.10
2006,12,22,11,05,2.70
2006,12,22,11,06,1.90
2006,12,22,11,07,1.40
2006,12,22,11,08,4.10
2006,12,22,11,09,6.00
2006,12,22,11,10,3.70
2006,12,22,11,11,5.90
2006,12,22,11,12,6.00
2006,12,22,11,13,3.90
2006,12,22,11,14,7.40
2006,12,22,11,15,4.80
2006,12,22,11,16,3.20
2006,12,22,11,17,2.30
2006,12,22,11,18,1.90
2006,12,22,11,19,3.10
2006,12,22,11,20,2.90
2006,12,22,11,21,4.20
2006,12,22,11,22,3.10
2006,12,22,11,23,1.00
2006,12,22,11,24,1.30
2006,12,22,11,25,0.30
2006,12,22,11,26,2.60
2006,12,22,11,27,4.30
2006,12,22,11,28,4.60
2006,12,22,11,29,3.00
2006,12,22,11,30,4.10
2006,12,22,11,31,2.80
2006,12,22,11,32,2.70
2006,12,22,11,33,2.90
2006,12,22,11,34,2.90
2006,12,22,11,35,1.20
2006,12,22,11,36,0.50
2006,12,22,11,37,3.30
2006,12,22,11,38,3.20
2006,12,22,11,39,2.80
2006,12,22,11,40,4.90
2006,12,22,11,41,2.40
2006,12,22,11,42,2.50
2006,12,22,11,43,2.20
2006,12,22,11,44,2.80
2006,12,22,11,45,3.10
2006,12,22,11,46,1.70
2006,12,22,11,47,3.40
2006,12,22,11,48,3.20
2006,12,22,11,49,1.60
2006,12,22,11,50,0.20
2006,12,22,11,51,1.50
2006,12,22,11,52,3.10
2006,12,22,11,53,4.00
2006,12,22,11,54,1.50
2006,12,22,11,55,1.90
2006,12,22,11,56,3.00
2006,12,22,11,57,2.10
2006,12,22,11,58,2.70
2006,12,22,11,59,3.10
2006,12,22,12,00,4.50
2006,12,22,12,01,1.00
2006,12,22,12,02,5.50
2006,12,22,12,03,3.50
2006,12,22,12,04,4.80
2006,12,22,12,05,5.70
2006,12,22,12,06,3.70
2006,12,22,12,07,3.20
2006,12,22,12,08,3.40
2006,12,22,12,09,2.70
2006,12,22,12,10,2.40
2006,12,22,12,11,4.00
2006,12,22,12,12,1.80
2006,12,22,12,13,1.90
2006,12,22,12,14,2.20
2006,12,22,12,15,2.80
2006,12,22,12,16,2.30
2006,12,22,12,17,5.80
2006,12,22,12,18,2.10
2006,12,22,12,19,1.20
2006,12,22,12,20,3.40
2006,12,22,12,21,3.00
2006,12,22,12,22,3.20
2006,12,22,12,23,2.90
2006,12,22,12,24,4.70
2006,12,22,12,25,1.40
2006,12,22,12,26,2.10
2006,12,22,12,27,2.50
2006,12,22,12,28,1.40
2006,12,22,12,29,1.30
2006,12,22,12,30,1.00
2006,12,22,12,31,1.70
2006,12,22,12,32,1.50
2006,12,22,12,33,0.20
2006,12,22,12,34,0.10
2006,12,22,12,35,0.20
2006,12,22,12,36,0.80
2006,12,22,12,37,1.70
2006,12,22,12,38,2.20
2006,12,22,12,39,2.30
2006,12,22,12,40,1.90
2006,12,22,12,41,0.50
2006,12,22,12,42,2.90
2006,12,22,12,43,1.80
2006,12,22,12,44,4.70
2006,12,22,12,45,3.60
2006,12,22,12,46,2.10
2006,12,22,12,47,1.80
2006,12,22,12,48,0.00
2006,12,22,12,49,0.00
2006,12,22,12,50,0.50
2006,12,22,12,51,1.80
2006,12,22,12,52,1.40
2006,12,22,12,53,0.60
2006,12,22,12,54,1.60
2006,12,22,12,55,1.60
2006,12,22,12,56,0.60
2006,12,22,12,57,0.70
2006,12,22,12,58,0.20
2006,12,22,12,59,1.60
2006,12,22,13,00,0.20
2006,12,22,13,01,0.00
2006,12,22,13,02,2.40
2006,12,22,13,03,1.90
2006,12,22,13,04,1.00
2006,12,22,13,05,4.70
2006,12,22,13,06,2.00
2006,12,22,13,07,3.50
2006,12,22,13,08,1.20
2006,12,22,13,09,5.40
2006,12,22,13,10,3.90
2006,12,22,13,11,5.20
2006,12,22,13,12,4.30
2006,12,22,13,13,5.10
2006,12,22,13,14,2.50
2006,12,22,13,15,2.30
2006,12,22,13,16,3.90
2006,12,22,13,17,1.90
2006,12,22,13,18,4.30
2006,12,22,13,19,0.80
2006,12,22,13,20,1.50
2006,12,22,13,21,4.50
2006,12,22,13,22,3.30
2006,12,22,13,23,0.00
2006,12,22,13,24,0.60
2006,12,22,13,25,3.00
2006,12,22,13,26,4.70
2006,12,22,13,27,3.70
2006,12,22,13,28,5.60
2006,12,22,13,29,5.70
2006,12,22,13,30,5.10
2006,12,22,13,31,4.20
2006,12,22,13,32,4.80
2006,12,22,13,33,6.00
2006,12,22,13,34,4.30
2006,12,22,13,35,3.50
2006,12,22,13,36,3.90
2006,12,22,13,37,1.60
2006,12,22,13,38,5.50
2006,12,22,13,39,4.30
2006,12,22,13,40,3.30
2006,12,22,13,41,5.10
2006,12,22,13,42,4.00
2006,12,22,13,43,2.20
2006,12,22,13,44,0.80
2006,12,22,13,45,4.60
2006,12,22,13,46,3.50
2006,12,22,13,47,0.80
2006,12,22,13,48,0.60
2006,12,22,13,49,2.20
2006,12,22,13,50,3.60
2006,12,22,13,51,4.20
2006,12,22,13,52,2.20
2006,12,22,13,53,0.50
2006,12,22,13,54,3.60
2006,12,22,13,55,1.50
2006,12,22,13,56,3.30
2006,12,22,13,57,2.90
2006,12,22,13,58,0.20
2006,12,22,13,59,1.70
2006,12,22,14,00,3.90
2006,12,22,14,01,0.70
2006,12,22,14,02,1.70
2006,12,22,14,03,1.50
2006,12,22,14,04,4.30
2006,12,22,14,05,2.10
2006,12,22,14,06,3.30
2006,12,22,14,07,3.90
2006,12,22,14,08,4.30
2006,12,22,14,09,1.10
2006,12,22,14,10,3.20
2006,12,22,14,11,1.00
2006,12,22,14,12,1.70
2006,12,22,14,13,1.40
2006,12,22,14,14,1.50
2006,12,22,14,15,2.40
2006,12,22,14,16,4.00
2006,12,22,14,17,0.30
2006,12,22,14,18,1.20
2006,12,22,14,19,0.20
2006,12,22,14,20,1.60
2006,12,22,14,21,2.20
2006,12,22,14,22,3.30
2006,12,22,14,23,2.20
2006,12,22,14,24,5.10
2006,12,22,14,25,3.70
2006,12,22,14,26,0.90
2006,12,22,14,27,1.50
2006,12,22,14,28,1.70
2006,12,22,14,29,3.00
2006,12,22,14,30,1.50
2006,12,22,14,31,0.30
2006,12,22,14,32,0.70
2006,12,22,14,33,2.40
2006,12,22,14,34,3.30
2006,12,22,14,35,3.80
2006,12,22,14,36,1.30
2006,12,22,14,37,2.80
2006,12,22,14,38,6.90
2006,12,22,14,39,2.20
2006,12,22,14,40,3.30
2006,12,22,14,41,3.40
2006,12,22,14,42,5.10
2006,12,22,14,43,2.80
2006,12,22,14,44,3.30
2006,12,22,14,45,3.30
2006,12,22,14,46,3.10
2006,12,22,14,47,2.40
2006,12,22,14,48,0.90
2006,12,22,14,49,4.90
2006,12,22,14,50,2.90
2006,12,22,14,51,1.00
2006,12,22,14,52,1.90
2006,12,22,14,53,3.00
2006,12,22,14,54,2.20
2006,12,22,14,55,1.90
2006,12,22,14,56,2.70
2006,12,22,14,57,4.00
2006,12,22,14,58,3.70
2006,12,22,14,59,2.30
2006,12,22,15,00,4.00
2006,12,22,15,01,2.60
2006,12,22,15,02,5.50
2006,12,22,15,03,1.90
2006,12,22,15,04,6.00
2006,12,22,15,05,5.00
2006,12,22,15,06,4.20
2006,12,22,15,07,2.60
2006,12,22,15,08,1.70
2006,12,22,15,09,6.60
2006,12,22,15,10,4.50
2006,12,22,15,11,7.60
2006,12,22,15,12,4.50
2006,12,22,15,13,6.10
2006,12,22,15,14,6.40
2006,12,22,15,15,4.30
2006,12,22,15,16,2.80
2006,12,22,15,17,6.10
2006,12,22,15,18,2.40
2006,12,22,15,19,5.80
2006,12,22,15,20,4.30
2006,12,22,15,21,5.70
2006,12,22,15,22,6.20
2006,12,22,15,23,9.00
2006,12,22,15,24,4.30
2006,12,22,15,25,1.80
2006,12,22,15,26,3.70
2006,12,22,15,27,5.60
2006,12,22,15,28,5.10
2006,12,22,15,29,6.40
2006,12,22,15,30,5.90
2006,12,22,15,31,6.10
2006,12,22,15,32,6.80
2006,12,22,15,33,2.50
2006,12,22,15,34,3.80
2006,12,22,15,35,0.80
2006,12,22,15,36,1.50
2006,12,22,15,37,2.10
2006,12,22,15,38,3.10
2006,12,22,15,39,5.10
2006,12,22,15,40,2.90
2006,12,22,15,41,3.10
2006,12,22,15,42,4.10
2006,12,22,15,43,3.70
2006,12,22,15,44,6.60
2006,12,22,15,45,6.50
2006,12,22,15,46,6.00
2006,12,22,15,47,3.40
2006,12,22,15,48,1.10
2006,12,22,15,49,5.10
2006,12,22,15,50,2.30
2006,12,22,15,51,6.00
2006,12,22,15,52,5.10
2006,12,22,15,53,3.50
2006,12,22,15,54,4.40
2006,12,22,15,55,2.40
2006,12,22,15,56,4.30
2006,12,22,15,57,2.60
2006,12,22,15,58,4.80
2006,12,22,15,59,10.10
2006,12,22,16,00,3.00
2006,12,22,16,01,2.80
2006,12,22,16,02,3.90
2006,12,22,16,03,4.20
2006,12,22,16,04,5.40
2006,12,22,16,05,5.40
2006,12,22,16,06,0.80
2006,12,22,16,07,1.30
2006,12,22,16,08,5.50
2006,12,22,16,09,4.70
2006,12,22,16,10,2.50
2006,12,22,16,11,4.70
2006,12,22,16,12,4.30
2006,12,22,16,13,1.90
2006,12,22,16,14,3.70
2006,12,22,16,15,3.60
2006,12,22,16,16,1.60
2006,12,22,16,17,0.20
2006,12,22,16,18,1.90
2006,12,22,16,19,4.90
2006,12,22,16,20,2.60
2006,12,22,16,21,2.40
2006,12,22,16,22,1.90
2006,12,22,16,23,2.20
2006,12,22,16,24,2.50
2006,12,22,16,25,3.50
2006,12,22,16,26,2.90
2006,12,22,16,27,1.20
2006,12,22,16,28,2.10
2006,12,22,16,29,1.40
2006,12,22,16,30,1.00
2006,12,22,16,31,2.30
2006,12,22,16,32,3.60
2006,12,22,16,33,4.40
2006,12,22,16,34,4.10
2006,12,22,16,35,5.40
2006,12,22,16,36,4.70
2006,12,22,16,37,1.20
2006,12,22,16,38,0.60
2006,12,22,16,39,0.00
2006,12,22,16,40,4.90
2006,12,22,16,41,7.80
2006,12,22,16,42,5.40
2006,12,22,16,43,2.70
2006,12,22,16,44,2.80
2006,12,22,16,45,1.80
2006,12,22,16,46,8.40
2006,12,22,16,47,8.50
2006,12,22,16,48,6.30
2006,12,22,16,49,6.60
2006,12,22,16,50,5.40
2006,12,22,16,51,2.00
2006,12,22,16,52,5.30
2006,12,22,16,53,5.20
2006,12,22,16,54,1.50
2006,12,22,16,55,6.00
2006,12,22,16,56,2.30
2006,12,22,16,57,3.50
2006,12,22,16,58,4.40
2006,12,22,16,59,4.30
2006,12,22,17,00,2.10
2006,12,22,17,01,0.50
2006,12,22,17,02,4.80
2006,12,22,17,03,8.00
2006,12,22,17,04,1.40
2006,12,22,17,05,2.00
2006,12,22,17,06,2.90
2006,12,22,17,07,3.10
2006,12,22,17,08,2.50
2006,12,22,17,09,6.30
2006,12,22,17,10,1.10
2006,12,22,17,11,3.50
2006,12,22,17,12,4.10
2006,12,22,17,13,4.30
2006,12,22,17,14,4.60
2006,12,22,17,15,3.60
2006,12,22,17,16,5.40
2006,12,22,17,17,0.30
2006,12,22,17,18,0.50
2006,12,22,17,19,3.80
2006,12,22,17,20,3.50
2006,12,22,17,21,2.70
2006,12,22,17,22,0.90
2006,12,22,17,23,2.90
2006,12,22,17,24,4.30
2006,12,22,17,25,3.10
2006,12,22,17,26,2.70
2006,12,22,17,27,1.70
2006,12,22,17,28,7.00
2006,12,22,17,29,4.90
2006,12,22,17,30,6.50
2006,12,22,17,31,2.40
2006,12,22,17,32,1.80
2006,12,22,17,33,1.50
2006,12,22,17,34,3.30
2006,12,22,17,35,2.30
2006,12,22,17,36,1.30
2006,12,22,17,37,2.00
2006,12,22,17,38,4.70
2006,12,22,17,39,4.50
2006,12,22,17,40,1.40
2006,12,22,17,41,6.20
2006,12,22,17,42,2.30
2006,12,22,17,43,1.30
2006,12,22,17,44,4.70
2006,12,22,17,45,0.40
2006,12,22,17,46,3.00
2006,12,22,17,47,3.50
2006,12,22,17,48,1.40
2006,12,22,17,49,3.10
2006,12,22,17,50,4.30
2006,12,22,17,51,2.30
2006,12,22,17,52,1.90
2006,12,22,17,53,1.90
2006,12,22,17,54,1.90
2006,12,22,17,55,1.20
2006,12,22,17,56,7.60
2006,12,22,17,57,4.70
2006,12,22,17,58,3.90
2006,12,22,17,59,3.00
2006,12,22,18,00,6.00
2006,12,22,18,01,7.40
2006,12,22,18,02,3.80
2006,12,22,18,03,6.10
2006,12,22,18,04,6.80
2006,12,22,18,05,4.50
2006,12,22,18,06,5.00